Guadalupe Pass, TX

6:14 PM MST on November 18, 2019 (GMT -0700)
Guadalupe Pass

Weather History for KGDP - October, 2019

Change the Weather History Date:

Sunday, October 20, 2019

  Actual Average Record
Temperature  
Mean Temperature 63 °F -  
Max Temperature 72 °F 67 °F 84 °F (2001)
Min Temperature 54 °F 48 °F 39 °F (1999)
Degree Days  
Heating Degree Days 2    
Growing Degree Days 13 (Base 50)    
Moisture  
Dew Point 30 °F    
Average Humidity 34    
Maximum Humidity 59    
Minimum Humidity 14    
Precipitation  
Precipitation 0.00 in - - ()
Sea Level Pressure  
Sea Level Pressure 29.73 in    
Wind  
Wind Speed 27 mph ()    
Max Wind Speed 41 mph    
Max Gust Speed 55 mph    
Visibility 9.9 miles    
Events      
Averages and records for this station are not official NWS values.
T = Trace of Precipitation, MM = Missing Value Source: Averaged Metar Reports

Daily Weather History Graph

Daily Weather History Graph

Search for Another Location

Airport or City:

Astronomy

Oct. 20, 2019 Rise Set
Actual Time 7:06 AM MDT 6:21 PM MDT
Civil Twilight 6:41 AM MDT 6:46 PM MDT
Nautical Twilight 6:12 AM MDT 7:14 PM MDT
Astronomical Twilight 5:44 AM MDT 7:42 PM MDT
Moon 11:46 PM MDT (10/20) 1:21 PM MDT (10/20)
Length of Visible Light 12h 04m
Length of Day
11h 15m
Waning Gibbous, 58% of the Moon is Illuminated
Oct 20
Waning Gibbous
Oct 21
Last Quarter
Oct 27
New
Nov 4
First Quarter
Nov 12
Full

Hourly Weather History & Observations

Time (MDT) Temp. Dew Point Humidity Pressure Visibility Wind Dir Wind Speed Gust Speed Precip Events Conditions
12:51 AM 57.0 °F 32.0 °F 39% 29.76 in 10.0 mi WSW 25.3 mph - N/A   Clear
1:51 AM 55.9 °F 34.0 °F 44% 29.73 in 10.0 mi WSW 26.5 mph 34.5 mph N/A   Clear
2:51 AM 57.0 °F 35.1 °F 44% 29.71 in 10.0 mi WSW 28.8 mph - N/A   Clear
3:51 AM 55.9 °F 37.0 °F 49% 29.69 in 10.0 mi WSW 38.0 mph - N/A   Clear
4:51 AM 54.0 °F 37.9 °F 55% 29.69 in 10.0 mi WSW 35.7 mph 47.2 mph N/A   Clear
5:51 AM 55.0 °F 39.0 °F 55% 29.71 in 10.0 mi WSW 36.8 mph 48.3 mph N/A   Clear
6:51 AM 55.0 °F 41.0 °F 59% 29.71 in 10.0 mi WSW 38.0 mph 47.2 mph N/A   Clear
7:51 AM 55.0 °F 41.0 °F 59% 29.74 in 10.0 mi WSW 33.4 mph 39.1 mph N/A   Clear
8:51 AM 57.0 °F 42.1 °F 57% 29.75 in 10.0 mi WSW 32.2 mph 38.0 mph N/A   Clear
9:51 AM 61.0 °F 43.0 °F 52% 29.75 in 10.0 mi WSW 31.1 mph 41.4 mph N/A   Clear
10:51 AM 64.9 °F 39.9 °F 40% 29.75 in 10.0 mi WSW 33.4 mph 42.6 mph N/A   Clear
11:51 AM 69.1 °F 37.0 °F 31% 29.72 in 10.0 mi WSW 33.4 mph 46.0 mph N/A   Clear
12:51 PM 70.0 °F 37.0 °F 30% 29.69 in 10.0 mi WSW 41.4 mph 55.2 mph N/A   Clear
1:51 PM 71.1 °F 36.0 °F 28% 29.66 in 10.0 mi WSW 38.0 mph 54.1 mph N/A   Clear
2:51 PM 72.0 °F 30.9 °F 22% 29.66 in 10.0 mi WSW 36.8 mph 46.0 mph N/A   Clear
3:51 PM 70.0 °F 27.0 °F 20% 29.67 in 10.0 mi WSW 39.1 mph 48.3 mph N/A   Clear
4:51 PM 69.1 °F 21.9 °F 17% 29.68 in 9.0 mi WSW 38.0 mph 49.5 mph N/A   Clear
5:51 PM 66.9 °F 19.9 °F 17% 29.69 in 9.0 mi WSW 36.8 mph 46.0 mph N/A   Clear
6:51 PM 64.0 °F 19.0 °F 18% 29.73 in 10.0 mi WSW 31.1 mph 40.3 mph N/A   Clear
7:51 PM 61.0 °F 19.9 °F 21% 29.78 in 10.0 mi WSW 19.6 mph - N/A   Clear
8:51 PM 60.1 °F 18.0 °F 20% 29.80 in 10.0 mi WSW 25.3 mph 34.5 mph N/A   Clear
9:51 PM 60.1 °F 17.1 °F 19% 29.81 in 10.0 mi West 17.3 mph 32.2 mph N/A   Clear
10:51 PM 61.0 °F 10.9 °F 14% 29.83 in 10.0 mi North 9.2 mph - N/A   Clear
11:51 PM 57.0 °F 10.0 °F 15% 29.84 in 10.0 mi NE 8.1 mph - N/A   Clear